Regional Weather Roundup
Issued by NWS

Home | Current Version | Previous Version | Graphics & Text | Print | Product List | Glossary On
Versions: 1 2 3 4 5 6 7 8 9 10 11 12 13 14 15 16 17 18 19 20 21 22 23 24 25 26 27 28 29 30 31 32 33 34 35 36 37 38 39 40 41 42 43 44 45 46 47 48 49 50
000
ASUS45 KPSR 270510
RWRAZ

ARIZONA REGIONAL HOURLY WEATHER ROUNDUP
NATIONAL WEATHER SERVICE PHOENIX AZ
1000 PM MST THU MAR 26 2015

NOTE: FAIR INDICATES FEW OR NO CLOUDS BELOW 12,000 FEET WITH NO
SIGNIFICANT WEATHER AND/OR OBSTRUCTIONS TO VISIBILITY.

AZZ001>003-036-270600-
NORTHWEST ARIZONA

CITY           SKY/WX    TMP DP  RH WIND       PRES   REMARKS
BULLHEAD CITY  CLEAR     75  19  12 N8        30.08S
KINGMAN        CLEAR     52  23  32 SE13      30.22R
$$

AZZ004>008-015-016-018-270600-
NORTH CENTRAL ARIZONA

CITY           SKY/WX    TMP DP  RH WIND       PRES   REMARKS
GRAND CANYON   CLEAR     31  17  56 NE3       30.37R
WILLIAMS       CLEAR     41  18  38 SE8       30.42R
PRESCOTT       CLEAR     50  23  34 S7        30.26R
FLAGSTAFF      CLEAR     34  15  46 CALM      30.38R
PAYSON         CLEAR     59  12  15 NE8       30.29R
PAGE           CLEAR     56  21  25 CALM      30.27R
$$

AZZ009>014-017-270600-
NORTHEAST ARIZONA

CITY           SKY/WX    TMP DP  RH WIND       PRES   REMARKS
WINSLOW        CLEAR     44  13  28 SW6       30.29R
SAINT JOHNS    CLEAR     45  12  26 S7        30.30R
WINDOW ROCK    CLEAR     39  11  31 CALM      30.35R
SHOW LOW       CLEAR     41   9  26 CALM      30.36S
$$

AZZ023-270600-
GREATER PHOENIX AREA

CITY           SKY/WX    TMP DP  RH WIND       PRES   REMARKS
PHOENIX        CLEAR     80  24  12 W6        30.04R
BUCKEYE        CLEAR     63  32  31 NW7       30.06S
LUKE AFB       CLEAR     67  41  38 N6        30.05R
DEER VALLEY    CLEAR     69  33  26 CALM      30.07R
SCOTTSDALE     CLEAR     74  27  17 N5        30.08R
MESA-GATEWAY   CLEAR     66  28  24 CALM      30.09R
$$

AZZ027-028-270600-
SOUTHWEST MARICOPA COUNTY AND PINAL COUNTY

CITY           SKY/WX    TMP DP  RH WIND       PRES   REMARKS
CASA GRANDE    CLEAR     70  21  16 CALM      30.06R
GILA BEND      FAIR      66  21  17 S5        30.05R
$$

AZZ503-504-507>509-270600-
SOUTHEAST ARIZONA

CITY           SKY/WX    TMP DP  RH WIND       PRES   REMARKS
TUCSON         CLEAR     69  21  16 S6        30.14R
DAVIS-MONTHAN  CLEAR     63  24  22 S7        30.12R
NOGALES        CLEAR     66  20  17 NE9       30.18R
SIERRA VISTA   CLEAR     56  25  30 S7        30.24R
DOUGLAS        CLEAR     52  29  41 W7        30.22R
SAFFORD        CLEAR     56  23  27 E7        30.16R
$$

AZZ020-021-025-026-031-270600-
SOUTHWEST ARIZONA

CITY           SKY/WX    TMP DP  RH WIND       PRES   REMARKS
YUMA           PTCLDY    78  27  15 N5        30.03R
$$

CAZ031-033-041-043-047-048-061-270600-
SOUTHERN CALIFORNIA

CITY           SKY/WX    TMP DP  RH WIND       PRES   REMARKS
DOWNTOWN L.A.  CLEAR     73  47  39 CALM      30.02S
L.A. AIRPORT   CLEAR     67  53  61 W5        30.03S
SAN DIEGO      CLEAR     72  47  40 N5        30.05R
BURBANK        CLEAR     76  33  21 NW5       30.05S
ONTARIO        CLEAR     75  32  20 SW5       30.06R
RIVERSIDE      CLEAR     75  36  24 E3        30.07R
PALM SPRINGS   CLEAR     79  26  14 N6        30.06R
EL CENTRO NAS  CLEAR     71  32  23 W6        30.02R
IMPERIAL       CLEAR     72  37  28 CALM      30.01R
BLYTHE         CLEAR     69  30  23 N7        30.04R
NEEDLES        CLEAR     75  20  12 NW9       30.08R
$$

NVZ020-UTZ003-270600-
SOUTHERN NEVADA-UTAH

CITY           SKY/WX    TMP DP  RH WIND       PRES   REMARKS
LAS VEGAS      CLEAR     69  28  21 W7        30.12S
SALT LAKE CITY PTCLDY    48  32  53 SE5       30.34R
$$

NMZ009-TXZ055-270600-
NEW MEXICO-WEST TEXAS

CITY           SKY/WX    TMP DP  RH WIND       PRES   REMARKS
ALBUQUERQUE    PTCLDY    52  19  27 S3        30.26S
EL PASO        CLEAR     57  27  31 S6        30.23S
$$


........................KEY........................
SKY/WX - SKY CONDITION/WEATHER
TMP    - TEMPERATURE IN FAHRENHEIT
DP     - DEW POINT IN FAHRENHEIT
RH     - RELATIVE HUMIDITY IN PERCENT
WIND   - DIRECTION AND SPEED IN MILES PER HOUR (MPH)
VRB    - VARIABLE WIND DIRECTION
PRES   - MEAN SEA LEVEL PRESSURE IN INCHES OF MERCURY
         F - FALLING PRESSURE   R - RISING PRESSURE
         S - STEADY PRESSURE
VSB    - VISIBILITY IN MILES
HX     - HEAT INDEX IN FAHRENHEIT
WCI    - WIND CHILL INDEX IN FAHRENHEIT
TC     - TEMPERATURE IN CELSIUS WHICH IS ALSO KNOWN AS
         TEMPERATURE IN CENTIGRADE
AFB    - AIR FORCE BASE
         LUKE AFB IS LUKE AIR FORCE BASE
         DAVIS-MONTHAN IS DAVIS-MONTHAN AIR FORCE BASE
NAS    - NAVAL AIR STATION
         EL CENTRO NAS IS EL CENTRO NAVAL AIR STATION
N/A    - NOT AVAILABLE




USA.gov is the U.S. government's official web portal to all federal, state and local government web resources and services.